Tracking 25648 objects as of 17-May-2022
HD Live streaming from Space Station
objects crossing your sky now

COSMOS 2408

Track COSMOS 2408 now!
10-day predictions
COSMOS 2408 is classified as:


NORAD ID: 28419
Int'l Code: 2004-037A
Perigee: 1,478.3 km
Apogee: 1,501.7 km
Inclination: 82.5 °
Period: 115.6 minutes
Semi major axis: 7860 km
RCS: 0.961 m2 (medium)
Launch date: September 23, 2004
Source: Commonwealth of Independent States (former USSR) (CIS)
Launch site: PLESETSK MISSILE AND SPACE COMPLEX (PKMTR)

Store-dump communications for Russian government and military.
aabbcc
Your satellite tracking list
Your tracking list is empty




NASA's NSSDC Master Catalog

Two Line Element Set (TLE):
1 28419U 04037A   22136.77383369  .00000013  00000-0  22067-4 0  9993
2 28419  82.4868 180.7333 0014905 302.6569  57.3073 12.45629621802268
Source of the keplerian elements: AFSPC